Location: Alando
(42.3054°N, 9.2895°E)
Time: 22:14:38
(UTC+00:00)

Cosmos 2058 Rocket - Pass Details

Date: 09 April 2020
Orbit: 610 x 640 km, 82.5° (Epoch: 05 June)

Event Time Altitude Azimuth Distance (km) Brightness Sun altitude
Rises 18:51:24 0° 174° (S) 2,928 6.3 -10.3°
Reaches altitude 10° 18:53:40 10° 169° (S) 2,024 5.4 -10.7°
Maximum altitude 18:58:01 51° 94° (E) 803 3.3 -11.4°
Drops below altitude 10° 19:02:25 10° 18° (NNE) 2,035 5.8 -12.2°
Sets 19:04:42 0° 14° (NNE) 2,946 6.7 -12.6°
